Hourly Weather Bolshie Hutora

Today, 19 June, Saturday

Time Temperature Precipitation Wind Pressure Humidity
00:00 +16°C° 0 mm 3 mps 750 mmHg 90%
01:00 +15°C° 0 mm 2 mps 750 mmHg 91%
02:00 +15°C° 0 mm 2 mps 750 mmHg 92%
03:00 +15°C° 0 mm 2 mps 750 mmHg 92%
04:00 +16°C° 0 mm 2 mps 750 mmHg 91%
05:00 +16°C° 0 mm 2 mps 750 mmHg 91%
06:00 +18°C° 0 mm 2 mps 750 mmHg 86%
07:00 +19°C° 0 mm 2 mps 750 mmHg 80%
08:00 +21°C° 0 mm 3 mps 750 mmHg 74%
09:00 +22°C° 0 mm 3 mps 750 mmHg 70%
10:00 +24°C° 0 mm 3 mps 750 mmHg 66%
11:00 +25°C° 0 mm 3 mps 750 mmHg 61%
12:00 +26°C° 0 mm 3 mps 750 mmHg 60%
13:00 +27°C° 0 mm 3 mps 749 mmHg 58%
14:00 +27°C° 0 mm 3 mps 749 mmHg 56%
15:00 +27°C° 0 mm 2 mps 749 mmHg 59%
16:00 +27°C° 0 mm 2 mps 749 mmHg 63%
17:00 +27°C° 0 mm 2 mps 748 mmHg 66%
18:00 +26°C° 0 mm 2 mps 748 mmHg 71%
19:00 +24°C° 0 mm 1 mps 748 mmHg 76%
20:00 +23°C° 0 mm 1 mps 748 mmHg 81%
21:00 +22°C° 0 mm 1 mps 748 mmHg 84%
22:00 +21°C° 0 mm 1 mps 748 mmHg 86%
23:00 +19°C° 0 mm 2 mps 748 mmHg 88%

Tomorrow, 20 June, Sunday

Time Temperature Precipitation Wind Pressure Humidity
00:00 +19°C° 0 mm 2 mps 748 mmHg 90%
01:00 +19°C° 0 mm 2 mps 748 mmHg 92%
02:00 +18°C° 0 mm 2 mps 749 mmHg 94%
03:00 +19°C° 0 mm 2 mps 749 mmHg 94%
04:00 +19°C° 0 mm 2 mps 748 mmHg 93%
05:00 +19°C° 0 mm 2 mps 748 mmHg 93%
06:00 +21°C° 0 mm 2 mps 748 mmHg 88%
07:00 +23°C° 0 mm 2 mps 748 mmHg 82%
08:00 +24°C° 0 mm 3 mps 748 mmHg 77%
09:00 +25°C° 0 mm 3 mps 748 mmHg 72%
10:00 +26°C° 0 mm 3 mps 748 mmHg 68%
11:00 +27°C° 0 mm 3 mps 748 mmHg 63%
12:00 +28°C° 0 mm 3 mps 748 mmHg 61%
13:00 +28°C° 0 mm 3 mps 748 mmHg 59%
14:00 +28°C° 0 mm 3 mps 747 mmHg 57%
15:00 +28°C° 0 mm 3 mps 747 mmHg 60%
16:00 +28°C° 0 mm 3 mps 747 mmHg 63%
17:00 +28°C° 0 mm 2 mps 747 mmHg 66%
18:00 +26°C° 0 mm 2 mps 747 mmHg 70%
19:00 +24°C° 0 mm 2 mps 746 mmHg 75%
20:00 +23°C° 0 mm 2 mps 746 mmHg 79%
21:00 +21°C° 0 mm 2 mps 746 mmHg 81%
22:00 +20°C° 0 mm 2 mps 746 mmHg 83%
23:00 +19°C° 0 mm 2 mps 746 mmHg 85%

Day after tomorrow, 21 June, Monday

Time Temperature Precipitation Wind Pressure Humidity
00:00 +19°C° 0 mm 2 mps 746 mmHg 87%
01:00 +18°C° 0 mm 2 mps 746 mmHg 90%
02:00 +17°C° 0 mm 2 mps 746 mmHg 92%
03:00 +18°C° 0 mm 2 mps 746 mmHg 92%
04:00 +18°C° 0 mm 2 mps 746 mmHg 92%
05:00 +18°C° 0 mm 2 mps 746 mmHg 91%
06:00 +19°C° 0 mm 3 mps 746 mmHg 86%
07:00 +20°C° 0 mm 3 mps 746 mmHg 81%
08:00 +22°C° 0 mm 4 mps 746 mmHg 76%
09:00 +23°C° 0 mm 4 mps 746 mmHg 70%
10:00 +26°C° 0 mm 4 mps 746 mmHg 65%
11:00 +27°C° 0 mm 4 mps 746 mmHg 59%
12:00 +28°C° 0 mm 4 mps 745 mmHg 57%
13:00 +29°C° 0 mm 4 mps 745 mmHg 55%
14:00 +30°C° 0 mm 4 mps 745 mmHg 53%
15:00 +29°C° 0 mm 4 mps 745 mmHg 57%
16:00 +29°C° 0 mm 4 mps 745 mmHg 61%
17:00 +29°C° 0 mm 4 mps 744 mmHg 65%
18:00 +27°C° 0 mm 4 mps 744 mmHg 71%
19:00 +26°C° 0 mm 4 mps 744 mmHg 77%
20:00 +24°C° 0 mm 3 mps 744 mmHg 82%
21:00 +22°C° 0 mm 3 mps 744 mmHg 86%
22:00 +21°C° 0 mm 3 mps 745 mmHg 89%
23:00 +20°C° 0 mm 3 mps 745 mmHg 92%

22 June, Tuesday

Time Temperature Precipitation Wind Pressure Humidity
00:00 +20°C° 0 mm 3 mps 745 mmHg 93%
01:00 +20°C° 0 mm 3 mps 745 mmHg 95%
02:00 +19°C° 0 mm 3 mps 745 mmHg 96%
03:00 +20°C° 0 mm 3 mps 745 mmHg 95%
04:00 +20°C° 0 mm 3 mps 745 mmHg 95%
05:00 +20°C° 0 mm 3 mps 745 mmHg 94%
06:00 +21°C° 0 mm 3 mps 745 mmHg 87%
07:00 +23°C° 0 mm 4 mps 745 mmHg 80%
08:00 +26°C° 0 mm 4 mps 745 mmHg 72%
09:00 +27°C° 0 mm 5 mps 745 mmHg 67%
10:00 +28°C° 0 mm 5 mps 745 mmHg 61%
11:00 +29°C° 0 mm 5 mps 745 mmHg 56%
12:00 +30°C° 0 mm 5 mps 745 mmHg 56%
13:00 +32°C° 0 mm 5 mps 745 mmHg 56%
14:00 +32°C° 0 mm 5 mps 745 mmHg 56%
15:00 +32°C° 0 mm 4 mps 745 mmHg 58%
16:00 +30°C° 0 mm 4 mps 745 mmHg 61%
17:00 +30°C° 0 mm 4 mps 745 mmHg 64%
18:00 +28°C° 0 mm 3 mps 745 mmHg 70%
19:00 +27°C° 0 mm 3 mps 745 mmHg 76%
20:00 +25°C° 0 mm 3 mps 745 mmHg 82%
21:00 +24°C° 0 mm 3 mps 745 mmHg 85%
22:00 +23°C° 0 mm 2 mps 745 mmHg 88%
23:00 +21°C° 0 mm 2 mps 745 mmHg 91%

23 June, Wednesday

Time Temperature Precipitation Wind Pressure Humidity
00:00 +20°C° 0 mm 2 mps 745 mmHg 92%
01:00 +20°C° 0 mm 2 mps 745 mmHg 93%
02:00 +20°C° 0 mm 2 mps 746 mmHg 94%
03:00 +20°C° 0 mm 2 mps 746 mmHg 94%
04:00 +21°C° 0 mm 2 mps 746 mmHg 94%
05:00 +21°C° 0 mm 2 mps 746 mmHg 94%
06:00 +24°C° 0 mm 3 mps 746 mmHg 88%
07:00 +25°C° 0 mm 3 mps 746 mmHg 82%
08:00 +27°C° 0 mm 4 mps 746 mmHg 76%
09:00 +28°C° 0 mm 4 mps 746 mmHg 70%
10:00 +30°C° 0 mm 4 mps 746 mmHg 64%
11:00 +32°C° 0 mm 4 mps 746 mmHg 58%
12:00 +32°C° 0 mm 4 mps 746 mmHg 56%
13:00 +33°C° 0 mm 4 mps 746 mmHg 54%
14:00 +34°C° 0 mm 4 mps 746 mmHg 51%
15:00 +33°C° 0 mm 4 mps 746 mmHg 55%
16:00 +33°C° 0 mm 3 mps 746 mmHg 58%
17:00 +33°C° 0 mm 3 mps 746 mmHg 62%
18:00 +30°C° 0 mm 3 mps 746 mmHg 67%
19:00 +28°C° 0 mm 3 mps 746 mmHg 71%
20:00 +26°C° 0 mm 3 mps 746 mmHg 76%
21:00 +25°C° 0 mm 3 mps 746 mmHg 79%
22:00 +24°C° 0 mm 3 mps 746 mmHg 82%
23:00 +22°C° 0 mm 3 mps 746 mmHg 85%

24 June, Thursday

Time Temperature Precipitation Wind Pressure Humidity
00:00 +21°C° 0 mm 3 mps 746 mmHg 87%
01:00 +21°C° 0 mm 2 mps 746 mmHg 90%
02:00 +21°C° 0 mm 2 mps 746 mmHg 93%
03:00 +21°C° 0 mm 2 mps 746 mmHg 93%
04:00 +21°C° 0 mm 2 mps 746 mmHg 93%
05:00 +23°C° 0 mm 2 mps 746 mmHg 93%
06:00 +24°C° 0 mm 2 mps 746 mmHg 87%
07:00 +26°C° 0 mm 3 mps 747 mmHg 81%
08:00 +27°C° 0 mm 3 mps 747 mmHg 75%
09:00 +29°C° 0 mm 3 mps 747 mmHg 69%
10:00 +30°C° 0 mm 3 mps 747 mmHg 64%
11:00 +31°C° 0 mm 3 mps 747 mmHg 58%
12:00 +33°C° 0 mm 3 mps 747 mmHg 55%
13:00 +33°C° 0 mm 3 mps 746 mmHg 52%
14:00 +34°C° 0 mm 3 mps 746 mmHg 49%
15:00 +34°C° 0 mm 2 mps 746 mmHg 53%
16:00 +32°C° 0 mm 2 mps 746 mmHg 57%
17:00 +32°C° 0 mm 2 mps 746 mmHg 60%
18:00 +30°C° 0 mm 2 mps 745 mmHg 66%
19:00 +29°C° 0 mm 2 mps 745 mmHg 71%
20:00 +27°C° 0 mm 2 mps 745 mmHg 77%
21:00 +26°C° 0.1 mm 2 mps 745 mmHg 79%
22:00 +25°C° 0.1 mm 2 mps 745 mmHg 81%
23:00 +24°C° 0.1 mm 2 mps 745 mmHg 84%
Show more